Wind_Speed
50 45 45 46 52 55 58 59 64 62 60 57 55 55 64 67 66 64 63 56 62 61 58 55 54 53 54 55 59 46 57 60 62 53 53 55 55 57 56 52 50 45 42 39 37
50 47 47 50 48 52 61 56 42 29 27 32 32 34 33 54 67 66 63 63 65 67 63 58 55 55 54 57 62 52 54 55 52 54 53 55 56 58 57 54 50 48 44 41 37
51 50 48 44 53 61 63 47 24 14 16 16 24 27 29 29 49 62 67 68 66 68 65 62 59 59 54 56 54 56 59 48 55 60 61 59 53 59 58 56 53 49 46 43 40
51 53 36 49 56 60 58 35 18 12 17 15 23 23 25 25 27 46 68 71 67 62 68 64 60 58 58 54 60 49 50 53 46 57 60 62 60 52 58 56 55 54 51 47 43
53 53 40 49 56 62 60 37 19 12 20 22 21 19 21 20 23 29 61 73 65 66 65 67 60 55 57 52 54 55 48 51 52 50 62 66 63 60 56 57 55 52 49 49 46
51 53 36 46 54 61 59 43 29 16 13 15 19 20 18 21 30 25 52 73 68 67 55 63 59 54 54 53 50 53 56 51 48 48 52 60 62 63 61 57 54 54 52 52 51
50 52 37 44 53 57 61 51 30 24 19 12 18 18 20 22 30 31 39 68 67 62 51 58 57 55 52 53 51 50 54 56 49 45 45 54 62 60 61 59 56 54 51 51 52
49 43 37 42 50 53 64 55 35 23 19 13 6 12 17 17 21 31 35 64 63 57 50 49 52 55 52 51 51 51 50 56 58 48 43 55 59 52 55 59 58 59 57 53 50
47 39 34 41 48 53 56 56 39 28 20 14 8 2 7 14 23 35 35 61 59 53 45 40 51 56 52 50 50 50 49 48 58 53 47 52 56 53 44 48 53 52 59 59 56
45 41 37 37 45 51 52 52 45 33 23 15 13 6 10 20 42 35 39 57 61 60 42 35 47 53 52 50 43 41 44 39 39 47 53 50 54 63 44 41 41 43 51 50 52
40 38 34 34 46 51 47 42 44 39 30 24 14 5 12 25 20 28 47 56 62 65 46 31 38 45 49 47 39 33 36 33 36 42 52 52 49 59 52 45 41 41 42 48 49
35 35 28 32 46 47 41 33 36 42 37 23 14 7 21 26 31 32 51 50 52 54 52 33 33 40 40 39 39 32 31 32 35 39 47 46 47 44 42 47 44 45 46 43 44
37 32 25 29 41 41 40 36 30 36 39 31 18 25 20 19 27 51 50 47 47 47 42 31 36 37 37 33 33 31 28 30 32 36 43 45 47 40 34 39 42 38 39 40 44
42 28 24 21 32 38 39 32 33 33 33 32 20 12 12 17 48 56 48 44 36 40 33 33 35 36 37 34 31 33 28 28 26 33 39 41 48 45 35 38 44 42 40 35 37
48 26 23 15 27 32 35 35 28 39 43 28 33 33 29 35 53 47 42 37 40 43 35 29 29 35 33 33 32 32 27 23 22 24 29 32 38 38 45 39 40 39 39 40 39
53 29 17 11 19 22 22 30 34 32 31 29 17 23 25 20 14 17 27 33 34 39 31 26 28 33 33 31 32 29 25 25 25 26 27 30 32 32 42 41 40 42 41 43 42
65 39 18 8 6 14 12 16 20 34 30 22 18 19 22 17 14 17 18 22 27 27 35 25 19 23 28 28 28 28 27 27 26 26 25 29 32 19 32 48 44 42 42 44 45
73 45 27 10 6 9 12 11 17 19 25 23 16 17 14 18 11 32 33 31 31 22 24 23 23 24 24 28 26 26 23 22 22 22 21 26 27 27 25 40 47 46 43 41 45
73 58 30 15 12 14 14 7 12 12 18 21 16 3 11 13 13 12 25 23 25 26 25 24 22 22 24 24 25 24 21 20 21 21 23 27 29 29 33 33 42 44 43 39 39
70 70 39 21 14 17 18 11 8 11 10 15 13 12 6 6 8 9 19 14 19 18 17 20 22 22 21 24 25 26 24 23 22 21 22 20 19 24 30 32 37 39 41 41 39
70 70 52 23 15 17 17 18 14 11 12 10 6 7 9 7 7 8 13 16 17 21 22 23 26 27 29 29 25 27 27 25 22 21 20 21 18 17 26 28 33 30 33 37 39
68 71 56 36 19 15 17 18 20 16 14 10 4 1 3 6 9 10 15 16 17 20 20 20 20 22 21 23 26 27 25 21 23 23 24 24 21 19 19 24 25 29 32 34 37
66 68 64 46 22 14 18 17 16 15 13 11 8 5 4 6 6 9 15 18 17 20 21 22 23 19 18 21 24 24 25 26 25 25 28 25 19 14 17 18 22 24 30 30 34
62 69 68 60 40 16 16 18 17 15 13 14 15 12 8 8 8 9 7 11 18 21 19 24 24 21 19 17 24 24 24 25 26 26 19 16 11 15 19 21 23 25 26 27 29
57 66 71 69 48 24 16 19 20 17 13 15 19 18 13 11 9 11 11 9 10 14 17 18 19 20 20 20 19 26 29 31 29 23 25 15 15 15 18 18 19 23 22 25 27
53 62 73 74 65 34 17 17 22 21 18 15 17 18 18 17 16 14 14 15 15 14 14 16 18 21 21 20 19 20 22 22 21 24 23 22 16 19 20 20 19 18 19 18 24
55 60 70 75 66 40 19 18 20 24 22 19 18 19 18 18 20 19 17 16 16 18 19 20 19 19 20 22 23 24 20 23 24 25 24 24 14 22 19 18 16 18 19 20 20
Wind_Direction
347 346 343 334 324 319 317 311 292 283 277 273 266 257 245 236 231 226 222 219 218 211 212 212 210 213 214 212 219 217 225 214 207 201 204 211 213 218 220 217 219 219 220 219 215
349 349 341 336 336 329 324 318 306 281 254 251 258 252 244 239 228 225 218 219 213 209 207 210 208 210 212 209 212 216 220 215 211 202 202 213 213 218 220 219 219 220 218 220 217
352 347 345 345 342 337 331 339 316 270 252 235 244 257 252 252 229 217 214 215 215 212 208 207 207 205 209 210 206 218 218 211 212 208 197 210 216 217 219 219 218 219 218 218 218
353 349 347 351 353 354 354 355 335 272 236 229 245 254 247 251 238 215 209 209 212 208 208 203 205 206 206 208 201 214 207 214 211 211 207 209 210 221 221 219 219 221 219 219 217
354 352 354 360 5 3 4 2 350 313 270 266 255 251 237 225 231 204 204 204 205 205 207 203 204 204 207 206 209 211 206 213 216 213 208 208 212 214 224 222 221 223 222 219 219
355 352 2 0 359 0 1 1 354 337 276 263 246 235 222 224 227 201 198 199 203 205 202 203 201 202 206 206 207 207 210 218 216 206 209 208 212 217 222 228 224 224 228 226 223
357 355 5 8 2 7 5 1 356 355 3 276 246 240 238 243 231 208 195 193 199 201 191 198 201 201 202 205 207 209 208 206 207 205 205 207 208 216 223 228 227 228 229 231 230
0 359 5 7 4 2 8 6 5 0 360 348 310 252 237 227 219 189 186 187 193 196 189 199 198 200 200 203 207 209 209 212 213 214 202 207 201 201 217 228 227 226 226 229 231
1 1 6 9 7 4 7 11 10 7 7 5 3 334 176 189 173 165 183 181 186 186 174 182 198 198 197 202 204 210 211 210 218 222 216 208 205 203 214 212 219 221 224 225 226
1 357 2 4 5 4 9 12 15 16 19 16 1 62 135 159 154 160 173 176 179 178 171 183 190 193 197 202 206 216 217 215 214 223 220 213 214 202 204 193 204 204 216 209 211
359 358 4 8 6 11 17 13 13 11 13 10 22 93 147 163 161 168 169 172 178 179 165 176 191 192 200 204 199 206 214 215 220 224 220 221 225 220 213 204 198 204 209 212 212
354 3 10 11 11 11 17 25 6 14 20 16 16 88 144 148 158 167 161 166 175 174 185 180 179 188 196 203 203 198 204 210 218 219 228 226 230 229 229 222 212 214 213 216 215
354 2 1 14 19 16 18 23 17 20 28 39 69 123 132 156 166 152 149 154 161 168 175 191 186 190 198 200 196 197 204 205 213 221 226 230 232 227 229 230 227 224 225 227 230
359 358 4 15 23 20 18 32 36 33 42 47 45 102 120 161 150 141 145 145 159 167 180 185 188 191 191 196 194 197 203 207 211 220 221 231 238 239 228 226 227 224 225 228 228
3 352 360 17 24 28 33 41 45 52 50 78 84 75 100 134 150 145 147 136 154 174 166 161 174 183 184 195 193 196 202 207 210 220 222 224 238 231 234 227 230 233 225 228 234
6 353 360 5 29 34 40 50 40 31 43 55 73 81 88 110 140 165 159 152 145 164 169 172 175 178 183 191 195 200 205 214 215 222 226 223 234 228 233 230 229 229 228 231 233
4 0 344 340 5 28 25 0 6 32 42 48 62 73 68 91 128 169 176 167 162 173 178 180 192 187 187 188 193 197 204 215 221 228 235 230 229 222 220 223 225 231 232 228 230
355 3 350 306 283 317 347 347 341 19 41 48 48 72 79 64 83 148 165 168 172 178 196 204 193 184 188 195 203 201 206 225 236 243 244 244 236 234 227 223 224 229 235 232 230
349 2 355 322 277 279 309 335 343 5 28 32 62 89 78 82 76 153 156 149 153 156 161 165 173 181 188 194 201 208 211 224 235 245 245 247 242 232 229 224 225 229 234 238 235
346 353 360 342 282 271 281 292 312 339 348 5 31 65 193 135 94 119 164 180 193 188 186 189 185 193 201 207 211 218 220 225 230 241 252 252 256 248 236 225 228 226 230 235 238
347 351 357 1 307 268 274 275 273 285 304 337 29 51 88 149 156 168 179 187 200 208 206 206 204 204 208 215 221 223 226 228 232 245 257 260 258 246 232 228 226 228 233 237 236
350 347 356 359 335 279 265 269 267 265 268 285 305 85 99 128 166 190 194 195 198 204 204 210 212 217 229 237 235 234 230 230 242 257 264 264 252 255 239 228 224 234 239 236 236
352 348 354 358 347 316 261 262 265 257 251 251 219 213 218 163 175 176 188 195 202 207 209 216 215 222 235 229 229 231 232 240 252 264 266 268 259 258 239 219 218 226 241 242 229
354 349 348 355 0 332 282 250 259 260 238 231 224 218 206 201 189 206 201 198 203 196 200 206 211 229 242 239 229 236 239 238 247 254 262 245 257 240 224 221 222 228 234 241 239
350 350 345 353 2 348 298 254 249 253 247 228 221 220 218 217 212 207 214 219 205 210 224 229 236 239 245 244 235 236 238 246 254 262 251 256 250 223 224 227 234 227 234 239 242
344 349 345 348 355 359 312 276 247 245 249 236 220 213 220 226 218 218 219 219 225 229 231 232 235 242 246 246 243 237 234 240 245 245 248 260 255 255 241 238 239 237 241 244 232
342 347 344 344 351 354 331 292 269 244 241 242 232 219 213 219 224 221 220 225 225 229 234 237 238 242 244 245 246 245 252 248 248 251 253 249 244 249 251 253 251 246 246 245 242
Height
5675 5668 5660 5652 5643 5631 5619 5607 5594 5588 5583 5581 5582 5584 5588 5599 5610 5623 5643 5656 5660 5665 5676 5686 5695 5704 5712 5720 5732 5739 5745 5753 5767 5777 5787 5791 5795 5800 5807 5814 5821 5827 5834 5840 5845
5669 5660 5651 5642 5630 5618 5602 5583 5568 5563 5564 5566 5568 5570 5571 5576 5592 5609 5628 5635 5645 5653 5664 5678 5687 5696 5705 5715 5724 5728 5737 5756 5769 5773 5780 5785 5788 5794 5803 5811 5817 5822 5828 5835 5842
5663 5654 5644 5634 5621 5605 5584 5566 5557 5555 5556 5559 5561 5561 5564 5567 5573 5595 5607 5621 5632 5645 5656 5667 5676 5686 5698 5707 5717 5726 5738 5755 5758 5757 5766 5777 5782 5788 5795 5805 5810 5816 5824 5829 5836
5659 5649 5639 5628 5613 5594 5573 5558 5555 5554 5554 5553 5554 5555 5558 5562 5568 5575 5591 5606 5621 5637 5647 5658 5670 5681 5692 5703 5713 5721 5733 5740 5745 5754 5765 5769 5778 5782 5790 5799 5804 5811 5816 5822 5829
5657 5645 5634 5624 5608 5590 5570 5558 5553 5551 5550 5549 5549 5550 5553 5557 5561 5565 5577 5594 5606 5625 5641 5653 5667 5679 5691 5701 5709 5718 5726 5732 5738 5751 5756 5761 5771 5776 5784 5791 5799 5807 5812 5816 5822
5654 5643 5632 5620 5606 5589 5571 5558 5552 5546 5543 5543 5544 5546 5549 5552 5551 5561 5566 5583 5602 5621 5636 5650 5665 5676 5685 5694 5704 5714 5720 5724 5734 5742 5750 5760 5767 5771 5779 5787 5794 5801 5807 5811 5815
5653 5643 5632 5620 5606 5591 5574 5562 5553 5547 5542 5539 5540 5542 5544 5546 5549 5557 5563 5580 5599 5618 5635 5649 5660 5669 5681 5690 5697 5704 5712 5719 5729 5737 5746 5752 5757 5769 5773 5780 5788 5795 5800 5806 5809
5652 5642 5632 5622 5609 5595 5579 5564 5555 5549 5544 5539 5537 5537 5538 5542 5546 5557 5564 5579 5599 5616 5635 5647 5654 5665 5675 5683 5691 5699 5706 5713 5723 5728 5739 5745 5759 5764 5765 5771 5781 5785 5792 5799 5805
5654 5642 5633 5624 5612 5599 5584 5571 5560 5552 5545 5541 5538 5536 5536 5538 5544 5555 5564 5580 5598 5617 5634 5640 5648 5661 5670 5680 5686 5694 5702 5712 5717 5724 5734 5744 5753 5756 5760 5766 5772 5777 5784 5791 5796
5654 5645 5635 5627 5615 5603 5590 5578 5567 5558 5551 5546 5542 5541 5540 5542 5547 5557 5565 5580 5596 5613 5629 5637 5643 5654 5666 5675 5686 5698 5706 5714 5720 5727 5732 5740 5745 5748 5755 5758 5766 5770 5775 5780 5787
5654 5646 5638 5630 5620 5608 5595 5584 5575 5564 5555 5551 5547 5545 5544 5546 5554 5560 5569 5581 5598 5610 5626 5632 5645 5657 5669 5680 5686 5696 5704 5711 5717 5722 5725 5731 5732 5738 5748 5750 5755 5763 5770 5776 5780
5656 5648 5641 5634 5625 5614 5602 5590 5580 5573 5562 5557 5552 5550 5551 5555 5560 5565 5575 5589 5603 5616 5628 5635 5647 5658 5668 5677 5685 5692 5698 5704 5708 5715 5719 5722 5726 5730 5736 5747 5753 5758 5764 5770 5775
5657 5651 5645 5639 5631 5622 5611 5599 5590 5584 5576 5568 5565 5563 5563 5565 5566 5572 5585 5596 5610 5622 5632 5641 5650 5657 5667 5675 5683 5690 5696 5700 5706 5710 5713 5718 5721 5724 5735 5742 5747 5754 5760 5765 5771
5659 5653 5648 5643 5638 5629 5621 5611 5603 5595 5589 5585 5578 5575 5573 5572 5577 5585 5594 5605 5616 5627 5635 5641 5649 5657 5665 5675 5682 5688 5694 5698 5702 5706 5712 5715 5720 5724 5731 5737 5742 5749 5755 5760 5765
5662 5654 5650 5645 5641 5636 5631 5622 5615 5607 5601 5599 5593 5590 5588 5591 5594 5598 5605 5610 5620 5628 5640 5647 5652 5658 5666 5675 5680 5685 5690 5696 5701 5705 5709 5712 5712 5723 5723 5730 5740 5746 5749 5752 5756
5662 5656 5652 5648 5645 5641 5636 5631 5625 5617 5610 5609 5608 5607 5609 5608 5608 5608 5611 5617 5625 5634 5642 5649 5654 5659 5667 5673 5678 5683 5687 5692 5696 5700 5704 5707 5709 5716 5720 5731 5731 5735 5740 5744 5749
5665 5657 5651 5649 5646 5644 5641 5637 5633 5627 5622 5618 5616 5615 5615 5618 5619 5616 5619 5626 5632 5637 5644 5650 5655 5661 5666 5671 5676 5680 5684 5688 5693 5695 5699 5700 5704 5713 5713 5718 5724 5726 5731 5736 5739
5666 5658 5651 5649 5646 5644 5643 5640 5636 5635 5629 5626 5622 5622 5622 5622 5622 5625 5626 5631 5637 5642 5648 5651 5656 5661 5666 5671 5676 5679 5682 5685 5687 5690 5694 5695 5702 5704 5709 5710 5714 5718 5723 5727 5732
5667 5657 5650 5646 5645 5643 5643 5641 5638 5637 5635 5632 5631 5629 5628 5628 5629 5630 5635 5637 5640 5645 5650 5655 5659 5662 5665 5670 5675 5676 5679 5681 5683 5686 5689 5691 5695 5699 5699 5703 5706 5710 5715 5719 5723
5667 5657 5650 5644 5641 5640 5639 5640 5639 5637 5638 5637 5635 5633 5632 5633 5634 5635 5637 5640 5643 5647 5652 5656 5659 5662 5665 5669 5671 5673 5676 5678 5680 5683 5684 5686 5688 5690 5692 5696 5698 5702 5706 5710 5714
5667 5658 5648 5642 5638 5637 5636 5637 5637 5637 5637 5638 5638 5637 5636 5635 5637 5638 5640 5642 5643 5646 5650 5653 5657 5661 5662 5664 5667 5669 5669 5673 5678 5679 5679 5681 5683 5684 5685 5688 5692 5694 5697 5700 5704
5669 5658 5647 5639 5637 5633 5632 5632 5634 5634 5635 5635 5637 5637 5637 5637 5637 5637 5639 5642 5644 5647 5649 5651 5653 5655 5658 5661 5663 5664 5667 5670 5673 5675 5674 5674 5678 5678 5679 5682 5685 5688 5691 5694 5697
5668 5657 5645 5637 5634 5632 5628 5628 5628 5630 5631 5633 5634 5635 5636 5637 5638 5638 5638 5640 5642 5644 5647 5649 5652 5654 5655 5658 5657 5660 5664 5667 5668 5669 5668 5669 5672 5674 5675 5676 5678 5682 5685 5686 5688
5669 5656 5643 5634 5629 5628 5625 5624 5624 5625 5626 5628 5630 5632 5634 5634 5635 5635 5636 5637 5640 5642 5644 5646 5649 5651 5651 5652 5653 5655 5659 5662 5663 5662 5666 5664 5666 5667 5669 5671 5672 5675 5677 5680 5682
5669 5656 5641 5632 5626 5623 5621 5619 5619 5620 5622 5623 5626 5628 5630 5632 5633 5633 5634 5634 5636 5638 5641 5643 5644 5646 5647 5649 5650 5651 5654 5655 5657 5660 5658 5663 5661 5662 5664 5665 5668 5669 5671 5673 5676
5667 5655 5640 5630 5623 5619 5617 5614 5614 5615 5617 5618 5620 5622 5624 5627 5629 5631 5631 5632 5634 5635 5637 5639 5641 5642 5643 5645 5646 5648 5649 5651 5653 5654 5655 5657 5658 5657 5659 5660 5662 5663 5665 5667 5669
5662 5653 5638 5627 5620 5615 5612 5611 5610 5610 5612 5613 5615 5618 5619 5622 5624 5625 5627 5629 5631 5632 5633 5635 5636 5637 5639 5640 5641 5643 5645 5646 5648 5649 5650 5650 5654 5651 5654 5656 5657 5658 5660 5661 5663